Fort Indiantown Gap, PA

4:51 AM EDT on August 23, 2017 (GMT -0400)
Muir Army Air Field

Weather History for KMUI - November, 2011

Change the Weather History Date:

Sunday, November 6, 2011

  Actual Average Record
Temperature  
Mean Temperature 39 °F -  
Max Temperature 55 °F 53 °F 75 °F (2015)
Min Temperature 24 °F 37 °F 24 °F (2011)
Degree Days  
Heating Degree Days 26    
Moisture  
Dew Point 32 °F    
Average Humidity 81    
Maximum Humidity 97    
Minimum Humidity 51    
Precipitation  
Precipitation 0.00 in - - ()
Sea Level Pressure  
Sea Level Pressure 30.48 in    
Wind  
Wind Speed 1 mph (South)    
Max Wind Speed 10 mph    
Max Gust Speed -    
Visibility 10 miles    
Events      
Averages and records for this station are not official NWS values.
T = Trace of Precipitation, MM = Missing Value Source: NWS Daily Summary

Daily Weather History Graph

Daily Weather History Graph

Search for Another Location

Airport or City:

Trip Planner

Search our weather history database for the weather conditions in past years. The results will help you decide how hot, cold, wet, or windy it might be!

Date:

Astronomy

Nov. 06, 2011 Rise Set
Actual Time 6:41 AM EST 4:57 PM EST
Civil Twilight 6:12 AM EST 5:26 PM EST
Nautical Twilight 5:40 AM EST 5:58 PM EST
Astronomical Twilight 5:08 AM EST 6:30 PM EST
Moon 2:41 PM EST (11/6) 2:45 AM EST (11/6)
Length of Visible Light 11h 13m
Length of Day
10h 16m
Waxing Gibbous, 85% of the Moon is Illuminated
Nov 6
Waxing Gibbous
Nov 10
Full
Nov 18
Last Quarter
Nov 25
New
Dec 2
First Quarter

Hourly Weather History & Observations

Time (EST) Temp. Dew Point Humidity Pressure Visibility Wind Dir Wind Speed Gust Speed Precip Events Conditions
12:55 AM 27.5 °F 26.6 °F 96% 30.50 in 10.0 mi Calm Calm - N/A   Clear
1:55 AM 26.8 °F 25.9 °F 96% 30.51 in 10.0 mi Calm Calm - N/A   Clear
1:55 AM 27.0 °F 25.9 °F 96% 30.51 in 10.0 mi Calm Calm - N/A   Clear
2:55 AM 26.6 °F 25.7 °F 96% 30.50 in 10.0 mi Calm Calm - N/A   Clear
3:55 AM 26.2 °F 25.3 °F 96% 30.51 in 10.0 mi Calm Calm - N/A   Clear
4:55 AM 24.6 °F 23.9 °F 97% 30.52 in 10.0 mi Calm Calm - N/A   Clear
5:55 AM 25.0 °F 24.3 °F 97% 30.53 in 10.0 mi Calm Calm - N/A   Clear
6:55 AM 25.0 °F 24.3 °F 97% 30.55 in 10.0 mi Calm Calm - N/A   Clear
7:55 AM 31.5 °F 29.8 °F 94% 30.56 in 10.0 mi Calm Calm - N/A   Clear
8:55 AM 39.9 °F 34.2 °F 80% 30.56 in 10.0 mi Calm Calm - N/A   Clear
9:55 AM 45.3 °F 33.8 °F 64% 30.56 in 10.0 mi Calm Calm - N/A   Clear
10:55 AM 48.0 °F 35.2 °F 61% 30.54 in 10.0 mi Variable 3.5 mph - N/A   Clear
11:55 AM 51.6 °F 35.4 °F 54% 30.50 in 10.0 mi WSW 10.4 mph - N/A   Clear
12:55 PM 53.2 °F 36.3 °F 53% 30.47 in 10.0 mi South 8.1 mph - N/A   Clear
1:55 PM 54.1 °F 37.0 °F 52% 30.45 in 10.0 mi SE 6.9 mph - N/A   Clear
2:55 PM 54.9 °F 36.9 °F 51% 30.42 in 10.0 mi Variable 5.8 mph - N/A   Clear
3:55 PM 54.1 °F 36.5 °F 51% 30.41 in 10.0 mi South 6.9 mph - N/A   Clear
4:55 PM 51.3 °F 37.0 °F 58% 30.41 in 10.0 mi SSE 4.6 mph - N/A   Clear
5:55 PM 43.9 °F 39.4 °F 84% 30.41 in 10.0 mi Calm Calm - N/A   Clear
6:55 PM 41.9 °F 39.9 °F 93% 30.42 in 10.0 mi Calm Calm - N/A   Clear
7:55 PM 39.9 °F 38.8 °F 96% 30.42 in 10.0 mi Calm Calm - N/A   Clear
8:55 PM 38.5 °F 37.8 °F 97% 30.42 in 10.0 mi Calm Calm - N/A   Clear
9:55 PM 35.8 °F 35.1 °F 97% 30.42 in 10.0 mi Calm Calm - N/A   Clear
10:55 PM 34.3 °F 33.6 °F 97% 30.41 in 10.0 mi Calm Calm - N/A   Clear